Weather History for KMRH - August, 2014

Change the Weather History Date:

Saturday, August 23, 2014

  Actual Average Record
Temperature  
Mean Temperature 80 °F -  
Max Temperature 84 °F 86 °F 94 °F (1968)
Min Temperature 75 °F 70 °F 56 °F (1969)
Cooling Degree Days 14    
Growing Degree Days 30 (Base 50)    
Moisture  
Dew Point 74 °F    
Average Humidity 86    
Maximum Humidity 96    
Minimum Humidity 74    
Precipitation  
Precipitation 0.67 in - - ()
Sea Level Pressure  
Sea Level Pressure 29.93 in    
Wind  
Wind Speed 5 mph (ENE)    
Max Wind Speed 14 mph    
Max Gust Speed 24 mph    
Visibility 7 miles    
Events Fog , Rain    
Averages and records for this station are not official NWS values.
T = Trace of Precipitation, MM = Missing Value Source: NWS Daily Summary

Daily Weather History Graph

Daily Weather History Graph

Search for Another Location

Airport or City:

Trip Planner

Search our weather history database for the weather conditions in past years. The results will help you decide how hot, cold, wet, or windy it might be!

Date:

Astronomy

Aug. 23, 2014 Rise Set
Actual Time 6:33 AM EDT 7:44 PM EDT
Civil Twilight 6:06 AM EDT 8:11 PM EDT
Nautical Twilight 5:35 AM EDT 8:42 PM EDT
Astronomical Twilight 5:03 AM EDT 9:14 PM EDT
Moon 4:48 AM EDT (8/23) 6:27 PM EDT (8/23)
Length of Visible Light 14h 04m
Length of Day
13h 11m
Waning Crescent, 3% of the Moon is Illuminated
Aug 23
Waning Crescent
Aug 25
New
Sep 2
First Quarter
Sep 8
Full
Sep 15
Last Quarter

Hourly Weather History & Observations

Time (EDT) Temp. Heat Index Dew Point Humidity Pressure Visibility Wind Dir Wind Speed Gust Speed Precip Events Conditions
12:58 AM 79.0 °F - 73.9 °F 84% 29.94 in 10.0 mi North 4.6 mph - N/A   Clear
1:58 AM 78.1 °F - 73.0 °F 84% 29.92 in 10.0 mi North 3.5 mph - N/A   Clear
2:58 AM 79.0 °F - 73.9 °F 84% 29.93 in 10.0 mi NNE 3.5 mph - N/A   Scattered Clouds
3:58 AM 78.1 °F - 73.9 °F 87% 29.92 in 10.0 mi NE 3.5 mph - N/A   Overcast
4:58 AM 78.1 °F - 75.0 °F 90% 29.91 in 9.0 mi NE 3.5 mph - N/A   Mostly Cloudy
5:58 AM 78.1 °F - 75.0 °F 90% 29.92 in 8.0 mi Calm Calm - N/A   Mostly Cloudy
6:58 AM 79.0 °F - 75.0 °F 88% 29.92 in 7.0 mi Calm Calm - N/A   Clear
7:38 AM 79.0 °F - 75.0 °F 88% 29.94 in 7.0 mi NNE 6.9 mph - N/A   Overcast
7:48 AM 79.0 °F - 73.9 °F 84% 29.94 in 7.0 mi ENE 6.9 mph - 0.00 in Rain Light Rain
7:58 AM 78.1 °F - 73.9 °F 87% 29.94 in 7.0 mi NE 6.9 mph - 0.00 in   Mostly Cloudy
8:58 AM 78.1 °F - 73.9 °F 87% 29.94 in 6.0 mi ENE 5.8 mph - N/A   Mostly Cloudy
9:58 AM 79.0 °F - 73.9 °F 84% 29.96 in 7.0 mi ENE 3.5 mph - N/A   Overcast
10:58 AM 81.0 °F 86.2 °F 73.9 °F 79% 29.96 in 9.0 mi NNE 5.8 mph - N/A   Overcast
12:58 PM 84.0 °F 92.6 °F 75.9 °F 76% 29.94 in 10.0 mi Variable 5.8 mph - N/A   Scattered Clouds
1:45 PM 80.1 °F 84.5 °F 73.9 °F 81% 29.94 in 4.0 mi NE 10.4 mph - 0.02 in Rain Light Rain
1:47 PM 79.0 °F - 73.9 °F 84% 29.94 in 1.5 mi NE 13.8 mph 18.4 mph 0.14 in Rain Rain
1:50 PM 78.1 °F - 73.9 °F 87% 29.94 in 0.8 mi ENE 10.4 mph 18.4 mph 0.23 in Rain Heavy Rain
1:58 PM 77.0 °F - 73.9 °F 90% 29.94 in 0.5 mi East 8.1 mph - 0.56 in Fog , Rain Heavy Rain
2:07 PM 77.0 °F - 75.0 °F 94% 29.93 in 1.2 mi SE 6.9 mph - 0.06 in Rain Light Rain
2:11 PM 77.0 °F - 75.0 °F 94% 29.93 in 3.0 mi ESE 4.6 mph - 0.06 in Rain Light Rain
2:20 PM 77.0 °F - 75.9 °F 96% 29.93 in 7.0 mi SE 5.8 mph - 0.06 in   Overcast
2:58 PM 80.1 °F 85.4 °F 75.9 °F 87% 29.92 in 5.0 mi East 8.1 mph - 0.07 in Rain Light Rain
3:47 PM 79.0 °F - 75.0 °F 88% 29.92 in 4.0 mi SSE 4.6 mph - 0.02 in Rain Light Rain
3:58 PM 79.0 °F - 73.9 °F 84% 29.92 in 4.0 mi SE 3.5 mph - 0.04 in Rain Light Rain
4:16 PM 79.0 °F - 75.9 °F 90% 29.92 in 8.0 mi Calm Calm - 0.00 in   Overcast
4:58 PM 80.1 °F 85.4 °F 75.9 °F 87% 29.91 in 9.0 mi South 3.5 mph - 0.00 in   Mostly Cloudy
5:58 PM 81.0 °F 85.8 °F 73.0 °F 77% 29.91 in 10.0 mi East 6.9 mph - N/A   Mostly Cloudy
6:58 PM 81.0 °F 85.2 °F 72.0 °F 74% 29.91 in 10.0 mi NE 8.1 mph - N/A   Mostly Cloudy
7:58 PM 75.9 °F - 71.1 °F 85% 29.93 in 10.0 mi NNE 13.8 mph 24.2 mph N/A   Mostly Cloudy
8:09 PM 75.0 °F - 70.0 °F 84% 29.92 in 10.0 mi NE 10.4 mph - N/A   Overcast
8:58 PM 75.0 °F - 71.1 °F 87% 29.92 in 10.0 mi NE 6.9 mph - 0.00 in   Mostly Cloudy
9:58 PM 77.0 °F - 71.1 °F 82% 29.93 in 10.0 mi NNE 6.9 mph - N/A   Clear
10:58 PM 77.0 °F - 71.1 °F 82% 29.93 in 10.0 mi NE 6.9 mph - N/A   Partly Cloudy